[[{"header":{"parameterUnit":"m.s-1","parameterCategory":1,"la1":30.2991,"la2":30.254,"lo1":-89.0895,"lo2":-89.0444,"dy":0.0017,"dx":0.0017,"nx":28,"ny":28,"refTime":"2025-03-24T21:00:00:Z","depth":0,"parameterNumber":2,"parameterNumberName":"U-component_of_WINDS"},"data":[0,0,0,0,0,0,0,0,0,0,0,0,0,0,0,0,0,0,0,0,0,0,0,0,0,0,0,0,0,0,0,0,0,0,0,0,0,0,0,0,0,0,0,0,0,0,0,0,0,0,0,0,0,0,0,0,0,0,1.1914,1.1916,0,1.2056,1.2058,1.206,1.211,1.2109,1.2109,1.2108,1.2253,1.2257,1.2261,0,0,0,0,0,0,0,0,0,0,0,0,0,1.1684,1.1688,1.1914,1.1916,1.1918,1.2056,1.2058,1.206,1.211,1.2109,1.2109,1.2108,1.2251,1.2257,1.2262,0,0,0,0,0,0,0,0,0,0,0,0,0,1.1801,1.1689,1.1914,1.1959,1.1965,1.2056,1.2058,1.2061,1.211,1.2109,1.2109,1.2108,1.225,1.2256,1.2263,1.2318,0,0,1.2282,1.2285,0,0,0,0,0,0,0,0,1.1794,1.1809,1.1951,1.1956,1.1963,1.2065,1.203,1.2147,1.211,1.2055,1.2108,1.2107,1.2191,1.2202,1.223,1.2325,1.2331,1.2283,1.2287,1.229,1.2292,0,0,0,0,0,0,0,1.1786,1.1803,1.197,1.1953,1.196,1.1972,1.1988,1.2052,1.2125,1.206,1.2064,1.208,1.2194,1.2224,1.2234,1.2333,1.2283,1.2289,1.2293,1.2295,1.2479,1.248,0,0,0,0,0,0,1.177,1.1796,1.1966,1.1975,1.1875,1.1977,1.1994,1.2033,1.2125,1.2138,1.208,1.2082,1.2213,1.2227,1.2239,1.231,1.229,1.2296,1.2299,1.2478,1.2479,1.248,0,0,0,0,0,0,1.1765,1.1785,1.196,1.1887,1.191,1.1981,1.2024,1.2036,1.2066,1.2141,1.2154,1.2098,1.2213,1.223,1.2298,1.2316,1.2299,1.2305,1.2477,1.2479,1.248,1.2452,0,0,0,0,0,0,1.1758,1.1783,1.1805,1.1887,1.1913,1.2017,1.2025,1.2039,1.2077,1.208,1.2161,1.2173,1.2214,1.2288,1.2304,1.2324,1.231,1.2476,1.2478,1.2479,1.2451,1.2452,1.2452,0,0,0,0,0,1.175,1.1792,1.1806,1.1826,1.1943,1.2018,1.2033,1.208,1.2079,1.2101,1.2149,1.217,1.2311,1.2295,1.2314,1.2336,1.2475,1.2477,1.2479,1.2451,1.2452,1.2452,0,0,0,0,0,0,1.171,1.1803,1.182,1.189,1.1945,1.2026,1.2056,1.2079,1.2136,1.2136,1.2191,1.2209,1.2272,1.2311,1.2291,1.2394,1.2394,1.24,1.2366,1.2368,1.2368,1.2357,1.2315,0,0,0,0,0,1.171,1.1763,1.1841,1.1895,1.1922,1.1984,1.2018,1.2049,1.2109,1.2133,1.2186,1.2242,1.2299,1.2336,1.2392,1.2457,1.2475,1.2481,1.2482,1.2482,1.2487,1.2523,1.2526,1.2488,1.2488,1.2488,0,0,1.1709,1.1766,1.1797,1.1888,1.1935,1.1988,1.2004,1.206,1.2099,1.2141,1.2208,1.2249,1.2316,1.2382,1.2413,1.2416,1.2501,1.2485,1.2484,1.2489,1.2525,1.2529,1.2532,1.2489,1.2489,1.2489,0,0,1.1735,1.1784,1.1834,1.188,1.1951,1.1992,1.2003,1.208,1.2109,1.2177,1.2209,1.2257,1.2354,1.24,1.2436,1.2477,1.2499,1.2494,1.2497,1.2532,1.2535,1.2538,1.2552,1.2556,1.2499,1.2499,1.2499,0,1.1725,1.1807,1.1856,1.191,1.1949,1.1989,1.2039,1.2082,1.2167,1.2193,1.2194,1.2316,1.2364,1.2441,1.2451,1.2479,1.2493,1.2486,1.2531,1.2534,1.2537,1.2551,1.2556,1.2497,1.2498,1.2498,1.2498,0,1.1791,1.1847,1.1879,1.196,1.2002,1.2054,1.211,1.2147,1.2174,1.2214,1.2282,1.2341,1.2409,1.243,1.2457,1.251,1.2509,1.252,1.2522,1.2539,1.2553,1.2559,1.2496,1.2496,1.2497,1.2497,0,0,1.1796,1.1903,1.1914,1.1951,1.2031,1.2075,1.2128,1.2195,1.2225,1.2282,1.2328,1.2408,1.2418,1.2459,1.2491,1.2521,1.2549,1.2528,1.2531,1.2529,1.261,1.2602,1.2607,1.2564,1.2565,1.2566,1.2605,0,1.1832,1.1929,1.1974,1.2051,1.2103,1.2141,1.2187,1.2241,1.2279,1.2329,1.2371,1.2427,1.2436,1.2461,1.2493,1.2539,1.2566,1.2537,1.2606,1.2608,1.2587,1.2615,1.2606,1.2639,1.261,1.2611,1.2612,0,1.1887,1.1944,1.2026,1.2099,1.2122,1.2163,1.2228,1.2274,1.2335,1.2361,1.2406,1.2437,1.2493,1.249,1.2568,1.2547,1.2578,1.2604,1.2607,1.2615,1.2611,1.2623,1.2651,1.2656,1.2621,1.2621,1.262,0,1.1882,1.1979,1.204,1.2071,1.2158,1.2185,1.2222,1.2283,1.232,1.2376,1.24,1.2462,1.2496,1.2542,1.2589,1.2583,1.2661,1.2663,1.2683,1.2682,1.2698,1.2697,1.2732,1.2718,1.2718,1.2718,1.2718,0,1.1917,1.1965,1.2039,1.2077,1.2131,1.2182,1.2235,1.2275,1.2328,1.2373,1.241,1.2452,1.251,1.2559,1.2595,1.2653,1.2668,1.269,1.2699,1.2687,1.2684,1.2708,1.2706,1.272,1.2719,1.2719,1.2719,0,1.1921,1.1972,1.2041,1.2118,1.2138,1.2175,1.224,1.2277,1.2317,1.2374,1.239,1.2453,1.2512,1.2563,1.2641,1.2665,1.2725,1.2736,1.2704,1.2709,1.2726,1.2724,1.2778,1.2787,1.2767,1.2767,1.2768,0,1.194,1.1978,1.2058,1.2091,1.2128,1.2181,1.2219,1.227,1.2307,1.2379,1.2407,1.2469,1.2521,1.2614,1.2666,1.2725,1.2738,1.2752,1.2747,1.2733,1.2737,1.2734,1.2738,1.2752,1.2752,1.2752,1.2752,0,1.1967,1.1991,1.2044,1.2106,1.215,1.2202,1.2254,1.2279,1.2339,1.2379,1.244,1.248,1.256,1.262,1.2685,1.2723,1.2747,1.2754,1.2761,1.2749,1.2729,1.2739,1.2704,1.2752,1.2752,1.2752,1.2752,1.2752,1.1979,1.2014,1.2076,1.2134,1.2178,1.2226,1.2265,1.2309,1.2361,1.243,1.2456,1.2518,1.2577,1.2667,1.2704,1.2753,1.2756,1.2768,1.2771,1.2773,1.277,1.2721,1.2765,1.2765,1.2765,1.2765,1.2765,0,1.2008,1.2049,1.2102,1.2174,1.2219,1.2239,1.2297,1.2333,1.2387,1.244,1.2491,1.256,1.2618,1.2674,1.2736,1.2763,1.2776,1.2778,1.2776,1.2784,1.2764,1.2751,1.2766,1.2766,1.2766,1.2766,1.2766,1.2766,1.2029,1.2089,1.2119,1.2201,1.2242,1.2303,1.2335,1.2378,1.2421,1.2496,1.2545,1.2582,1.2636,1.2701,1.2755,1.277,1.279,1.2789,1.2806,1.2786,1.2786,1.2785,1.2773,1.2793,1.2793,1.2823,1.2823,1.2823]},{"header":{"parameterUnit":"m.s-1","parameterCategory":1,"la1":30.2991,"la2":30.254,"lo1":-89.0895,"lo2":-89.0444,"dy":0.0017,"dx":0.0017,"nx":28,"ny":28,"refTime":"2025-03-24T21:00:00:Z","depth":0,"parameterNumber":3,"parameterNumberName":"V-component_of_WINDS"},"data":[0,0,0,0,0,0,0,0,0,0,0,0,0,0,0,0,0,0,0,0,0,0,0,0,0,0,0,0,0,0,0,0,0,0,0,0,0,0,0,0,0,0,0,0,0,0,0,0,0,0,0,0,0,0,0,0,0,0,1.8181,1.8182,0,1.8199,1.8199,1.8199,1.8212,1.8212,1.8212,1.8212,1.8228,1.8229,1.8229,0,0,0,0,0,0,0,0,0,0,0,0,0,1.8158,1.8159,1.8181,1.8182,1.8182,1.8199,1.8199,1.8199,1.8212,1.8212,1.8212,1.8212,1.8228,1.8229,1.8229,0,0,0,0,0,0,0,0,0,0,0,0,0,1.8171,1.8159,1.8181,1.819,1.8191,1.8199,1.8199,1.8199,1.8212,1.8212,1.8212,1.8213,1.8228,1.8229,1.8229,1.8228,0,0,1.823,1.8231,0,0,0,0,0,0,0,0,1.8171,1.8172,1.8189,1.819,1.8191,1.8203,1.8197,1.8209,1.8212,1.8204,1.8212,1.8213,1.822,1.8221,1.8224,1.8229,1.823,1.8231,1.8231,1.8231,1.8231,0,0,0,0,0,0,0,1.817,1.8171,1.8188,1.8189,1.819,1.8193,1.8195,1.8199,1.8211,1.8205,1.8206,1.8208,1.822,1.8223,1.8224,1.823,1.8231,1.8231,1.8231,1.8231,1.8237,1.8237,0,0,0,0,0,0,1.8168,1.8171,1.8188,1.8189,1.8181,1.8193,1.8196,1.8199,1.8211,1.8213,1.8208,1.8208,1.8222,1.8224,1.8225,1.8226,1.8231,1.8231,1.8232,1.8237,1.8237,1.8237,0,0,0,0,0,0,1.8167,1.8169,1.8187,1.818,1.8182,1.8194,1.8197,1.8199,1.8202,1.8213,1.8215,1.8209,1.8223,1.8224,1.8228,1.8226,1.8232,1.8232,1.8237,1.8237,1.8237,1.8227,0,0,0,0,0,0,1.8166,1.8169,1.8169,1.818,1.8183,1.819,1.8197,1.82,1.8203,1.8204,1.8214,1.8216,1.8223,1.8227,1.8228,1.8227,1.8232,1.8237,1.8237,1.8237,1.8227,1.8226,1.8225,0,0,0,0,0,1.8165,1.8164,1.8168,1.817,1.8183,1.819,1.8191,1.82,1.8203,1.8203,1.821,1.8216,1.8226,1.8227,1.8229,1.8228,1.8237,1.8237,1.8237,1.8228,1.8226,1.8225,0,0,0,0,0,0,1.8152,1.8166,1.8171,1.8173,1.818,1.8192,1.8192,1.8198,1.8204,1.8204,1.8214,1.8216,1.8219,1.8224,1.8224,1.8228,1.8233,1.8233,1.8225,1.8224,1.8223,1.8222,1.8233,0,0,0,0,0,1.8149,1.8154,1.8166,1.8167,1.817,1.8181,1.8184,1.819,1.8197,1.82,1.8207,1.8214,1.8219,1.8221,1.8226,1.8228,1.8231,1.8228,1.8227,1.8226,1.8226,1.8228,1.8227,1.8236,1.8236,1.8236,0,0,1.8143,1.8152,1.8154,1.8164,1.817,1.8175,1.8183,1.8187,1.819,1.82,1.8205,1.821,1.8218,1.8221,1.8222,1.8225,1.8225,1.8226,1.8225,1.8225,1.8228,1.8227,1.8226,1.8235,1.8236,1.8236,0,0,1.8136,1.8142,1.8145,1.8151,1.8161,1.8168,1.8168,1.8179,1.8184,1.8188,1.8196,1.82,1.8208,1.8214,1.8218,1.8214,1.8219,1.8215,1.821,1.8212,1.8211,1.8211,1.821,1.8209,1.8215,1.8215,1.8215,0,1.8127,1.8135,1.8145,1.8149,1.8154,1.8164,1.8166,1.8172,1.8182,1.8185,1.8188,1.8199,1.8205,1.821,1.8209,1.8212,1.8213,1.8214,1.8211,1.821,1.821,1.8209,1.8209,1.8214,1.8214,1.8214,1.8214,0,1.8125,1.813,1.813,1.8141,1.8146,1.8149,1.816,1.8163,1.8169,1.8176,1.8181,1.8189,1.8196,1.8197,1.8203,1.8203,1.8205,1.8209,1.8214,1.8208,1.8208,1.8208,1.8214,1.8214,1.8214,1.8214,0,0,1.8108,1.8126,1.8126,1.8131,1.8143,1.8147,1.8151,1.8159,1.8162,1.8169,1.8173,1.818,1.8185,1.8189,1.8195,1.8197,1.8194,1.8201,1.8201,1.82,1.8196,1.8193,1.8193,1.8198,1.8198,1.8198,1.8196,0,1.8103,1.8111,1.8121,1.8125,1.8131,1.8141,1.8145,1.8152,1.8159,1.8164,1.8171,1.8177,1.8182,1.8185,1.8187,1.8194,1.8194,1.8194,1.8202,1.8202,1.82,1.8192,1.8189,1.8186,1.8195,1.8195,1.8195,0,1.8097,1.8105,1.8111,1.8123,1.8126,1.8129,1.8138,1.8142,1.8151,1.8156,1.8162,1.8169,1.8174,1.8178,1.8185,1.8185,1.8189,1.8193,1.8193,1.8194,1.8198,1.8194,1.8186,1.8185,1.8195,1.8195,1.8195,0,1.8086,1.8097,1.8103,1.8107,1.8121,1.8123,1.8129,1.8139,1.8143,1.8151,1.8154,1.8162,1.8166,1.8171,1.818,1.8182,1.8187,1.8191,1.8191,1.8191,1.8191,1.8191,1.8184,1.8193,1.8193,1.8193,1.8193,0,1.8079,1.8082,1.8098,1.8101,1.8105,1.8116,1.812,1.8127,1.8135,1.814,1.8149,1.8153,1.8164,1.817,1.8177,1.8182,1.8183,1.8188,1.8189,1.8187,1.8187,1.8189,1.819,1.8193,1.8193,1.8193,1.8193,0,1.8066,1.8077,1.8084,1.8097,1.8101,1.8103,1.8115,1.8118,1.8126,1.8132,1.8134,1.8146,1.8153,1.8162,1.8172,1.8177,1.8181,1.8184,1.8178,1.8179,1.8179,1.8179,1.8173,1.8174,1.8182,1.8182,1.8182,0,1.8062,1.8064,1.8079,1.8083,1.8089,1.8096,1.8101,1.8112,1.8117,1.8128,1.813,1.8138,1.8145,1.8156,1.8165,1.8173,1.8176,1.8174,1.8177,1.8175,1.8177,1.8177,1.8177,1.8173,1.8173,1.8173,1.8173,0,1.8052,1.8057,1.8065,1.8074,1.808,1.8088,1.8096,1.8099,1.8112,1.8117,1.8125,1.813,1.8141,1.8149,1.8158,1.8164,1.8171,1.8172,1.8172,1.817,1.8167,1.8169,1.8176,1.8172,1.8172,1.8172,1.8172,1.8172,1.8044,1.8047,1.8058,1.8066,1.8074,1.8082,1.8086,1.8095,1.8102,1.8112,1.8118,1.8125,1.8135,1.8148,1.8154,1.816,1.8163,1.8163,1.8163,1.8163,1.8163,1.8166,1.8162,1.8162,1.8162,1.8162,1.8162,0,1.8035,1.8043,1.805,1.8062,1.8069,1.8075,1.8085,1.809,1.8097,1.8105,1.8113,1.8122,1.813,1.814,1.8149,1.8152,1.8155,1.8154,1.8154,1.8155,1.816,1.8159,1.8151,1.8151,1.8151,1.8151,1.8151,1.8151,1.8032,1.8038,1.8045,1.8056,1.8063,1.8072,1.8077,1.8084,1.8091,1.8102,1.8109,1.8116,1.8125,1.8135,1.8143,1.8145,1.8148,1.8146,1.815,1.8154,1.8155,1.8156,1.8155,1.8147,1.8147,1.8145,1.8145,1.8145]}]]